Location: Cisewo
(53.3833°N, 14.9000°E)
Time: 12:00:27
(UTC+00:00)

Cosmos 1743 Rocket - Pass Details

Date: 18 April 2021
Orbit: 603 x 633 km, 82.6° (Epoch: 14 May)

Event Time Altitude Azimuth Distance (km) Brightness Sun altitude
Rises 20:36:55 0° 354° (N) 2,890 8.0 -18.7°
Reaches altitude 10° 20:39:19 10° 3° (N) 1,976 6.8 -18.9°
Maximum altitude 20:43:21 35° 70° (ENE) 985 4.4 -19.3°
Enters shadow 20:44:08 33° 94° (E) 1,040 4.4 -19.3°
